| time (UTC) | temp F | wind direction | speed knots | gust knots | rain 1hr in | rain 24hr in | rain mn in | humidity % | barometer mb |
| 20260504044550 | 59 | 208 | 6.1 | 12.2 | 0.00 | 0.00 | 0.00 | 59 | 1010.8 |
| 20260504043048 | 59 | 160 | 7.0 | 14.8 | 0.00 | 0.00 | 0.00 | 59 | 1010.7 |
| 20260504041552 | 59 | 205 | 7.8 | 13.9 | 0.00 | 0.00 | 0.00 | 59 | 1011.0 |
| 20260504040057 | 59 | 233 | 7.8 | 13.9 | 0.00 | 0.00 | 0.00 | 58 | 1011.1 |
| 20260504034552 | 59 | 202 | 7.8 | 14.8 | 0.00 | 0.00 | 0.00 | 59 | 1011.1 |
| 20260504033052 | 60 | 163 | 7.8 | 12.2 | 0.00 | 0.00 | 0.00 | 58 | 1011.2 |
| 20260504031602 | 60 | 188 | 6.1 | 13.0 | 0.00 | 0.00 | 0.00 | 57 | 1011.6 |
| 20260504030051 | 60 | 173 | 7.0 | 13.0 | 0.00 | 0.00 | 0.00 | 56 | 1011.4 |
| 20260504024600 | 61 | 180 | 6.1 | 13.0 | 0.00 | 0.00 | 0.00 | 54 | 1011.5 |
| 20260504023047 | 61 | 187 | 6.1 | 13.0 | 0.00 | 0.00 | 0.00 | 55 | 1011.7 |
| 20260504021555 | 61 | 213 | 8.7 | 14.8 | 0.00 | 0.00 | 0.00 | 55 | 1011.4 |
| 20260504020054 | 60 | 194 | 9.6 | 15.6 | 0.00 | 0.00 | 0.00 | 55 | 1011.2 |
| 20260504014555 | 61 | 203 | 7.8 | 15.6 | 0.00 | 0.00 | 0.00 | 56 | 1011.3 |
| 20260504013101 | 61 | 175 | 7.0 | 12.2 | 0.00 | 0.00 | 0.00 | 54 | 1011.5 |
| 20260504011546 | 62 | 167 | 7.0 | 14.8 | 0.00 | 0.00 | 0.00 | 53 | 1011.5 |
| 20260504010046 | 62 | 207 | 6.1 | 13.0 | 0.00 | 0.00 | 0.00 | 52 | 1011.6 |
| 20260504004600 | 63 | 205 | 8.7 | 13.9 | 0.00 | 0.00 | 0.00 | 50 | 1011.8 |
| 20260504003046 | 63 | 205 | 7.8 | 14.8 | 0.00 | 0.00 | 0.00 | 49 | 1011.9 |
| 20260504001548 | 64 | 202 | 7.0 | 12.2 | 0.00 | 0.00 | 0.00 | 49 | 1012.2 |
| 20260504000050 | 64 | 217 | 6.1 | 13.9 | 0.00 | 0.00 | 0.00 | 49 | 1012.3 |
| 20260503234552 | 64 | 208 | 8.7 | 15.6 | 0.00 | 0.00 | 0.00 | 47 | 1012.3 |
| 20260503233047 | 65 | 182 | 7.8 | 20.9 | 0.00 | 0.00 | 0.00 | 47 | 1012.2 |
| 20260503231554 | 66 | 194 | 11.3 | 18.2 | 0.00 | 0.00 | 0.00 | 45 | 1012.0 |
| 20260503230051 | 65 | 207 | 10.4 | 22.6 | 0.00 | 0.00 | 0.00 | 46 | 1012.1 |
| 20260503224551 | 66 | 246 | 10.4 | 20.0 | 0.00 | 0.00 | 0.00 | 45 | 1012.2 |
| 20260503223052 | 66 | 207 | 13.0 | 20.0 | 0.00 | 0.00 | 0.00 | 45 | 1012.1 |
| 20260503221555 | 66 | 213 | 13.0 | 23.5 | 0.00 | 0.00 | 0.00 | 45 | 1012.1 |
| 20260503220048 | 66 | 202 | 13.0 | 21.7 | 0.00 | 0.00 | 0.00 | 45 | 1012.4 |
| 20260503214551 | 66 | 232 | 13.9 | 25.2 | 0.00 | 0.00 | 0.00 | 45 | 1012.5 |
| 20260503213049 | 66 | 212 | 13.0 | 28.7 | 0.00 | 0.00 | 0.00 | 45 | 1012.7 |
| 20260503211546 | 65 | 168 | 11.3 | 22.6 | 0.00 | 0.00 | 0.00 | 45 | 1013.0 |
| 20260503210051 | 67 | 165 | 10.4 | 22.6 | 0.00 | 0.00 | 0.00 | 45 | 1013.2 |
| 20260503204555 | 67 | 229 | 12.2 | 17.4 | 0.00 | 0.00 | 0.00 | 44 | 1013.7 |
| 20260503203055 | 66 | 227 | 8.7 | 21.7 | 0.00 | 0.00 | 0.00 | 47 | 1014.7 |
| 20260503201549 | 66 | 261 | 10.4 | 19.1 | 0.00 | 0.00 | 0.00 | 46 | 1015.0 |
| 20260503200050 | 66 | 231 | 11.3 | 20.9 | 0.00 | 0.00 | 0.00 | 45 | 1015.4 |
| 20260503194550 | 66 | 188 | 8.7 | 19.1 | 0.00 | 0.00 | 0.00 | 47 | 1015.2 |
| 20260503193058 | 65 | 201 | 11.3 | 20.0 | 0.00 | 0.00 | 0.00 | 45 | 1015.6 |
| 20260503191553 | 65 | 189 | 11.3 | 18.2 | 0.00 | 0.00 | 0.00 | 47 | 1016.1 |
| 20260503190052 | 64 | 192 | 10.4 | 26.1 | 0.00 | 0.00 | 0.00 | 47 | 1016.1 |
| 20260503184601 | 65 | 181 | 9.6 | 21.7 | 0.00 | 0.00 | 0.00 | 47 | 1016.6 |
| 20260503183047 | 64 | 235 | 7.8 | 20.0 | 0.00 | 0.00 | 0.00 | 48 | 1017.0 |
| 20260503181549 | 62 | 192 | 11.3 | 19.1 | 0.00 | 0.00 | 0.00 | 51 | 1017.3 |
| 20260503180051 | 63 | 214 | 11.3 | 20.9 | 0.00 | 0.00 | 0.00 | 48 | 1017.7 |
| 20260503174603 | 63 | 197 | 10.4 | 19.1 | 0.00 | 0.00 | 0.00 | 51 | 1017.9 |
| 20260503173048 | 63 | 218 | 8.7 | 19.1 | 0.00 | 0.00 | 0.00 | 51 | 1018.1 |
| 20260503171542 | 63 | 225 | 8.7 | 18.2 | 0.00 | 0.00 | 0.00 | 51 | 1018.4 |
| 20260503081549 | 43 | 208 | 0.9 | 3.5 | 0.00 | 0.01 | 0.00 | 70 | 1019.3 |
| 20260503071545 | 43 | 211 | 1.7 | 3.5 | 0.00 | 0.01 | 0.00 | 70 | 1019.3 |